Location: Poughquag
(41.6090°N, 73.6820°W)
Time: 21:18:09
(UTC-05:00)

Transit 2A - Pass Details

Date: 07 December 2023
Orbit: 600 x 953 km, 66.7° (Epoch: 23 February)

Event Time Altitude Azimuth Distance (km) Brightness Sun altitude
Rises 15:28:52 0° 232° (SW) 3,211 11.9 7.7°
Reaches altitude 10° 15:31:32 10° 241° (WSW) 2,227 10.8 7.3°
Maximum altitude 15:36:07 35° 307° (NW) 1,111 7.1 6.6°
Drops below altitude 10° 15:40:22 10° 13° (NNE) 2,056 7.8 6.0°
Sets 15:42:45 0° 23° (NNE) 2,930 8.5 5.6°
